Time,TemperatureF,DewpointF,PressureIn,WindDirection,WindDirectionDegrees,WindSpeedMPH,WindSpeedGustMPH,Humidity,HourlyPrecipIn,Conditions,Clouds,dailyrainin,SoftwareType,DateUTC
2013-06-02 00:11:00,71.4,67.0,30.01,ESE,118,2.0,10.0,86,0.00,,,0.00,weatherlink.com 1.10,2013-06-02 04:11:00,
2013-06-02 00:26:00,72.7,67.0,30.01,ESE,106,2.0,11.0,83,0.00,,,0.00,weatherlink.com 1.10,2013-06-02 04:26:00,
2013-06-02 00:41:00,73.0,68.0,30.01,SE,141,3.0,6.0,83,0.00,,,0.00,weatherlink.com 1.10,2013-06-02 04:41:00,
2013-06-02 00:56:00,72.8,67.0,30.01,East,100,4.0,7.0,83,0.00,,,0.00,weatherlink.com 1.10,2013-06-02 04:56:00,
2013-06-02 01:11:00,71.9,68.0,30.00,ESE,112,0.0,3.0,87,0.01,,,0.01,weatherlink.com 1.10,2013-06-02 05:11:00,
2013-06-02 01:26:00,70.7,67.0,30.00,ESE,108,0.0,4.0,89,0.01,,,0.01,weatherlink.com 1.10,2013-06-02 05:26:00,
2013-06-02 01:41:00,70.3,67.0,29.99,ESE,104,0.0,3.0,89,0.01,,,0.01,weatherlink.com 1.10,2013-06-02 05:41:00,
2013-06-02 01:56:00,70.2,67.0,29.98,ESE,110,1.0,4.0,90,0.01,,,0.01,weatherlink.com 1.10,2013-06-02 05:56:00,
2013-06-02 02:11:00,69.8,67.0,29.96,ESE,106,0.0,5.0,90,0.00,,,0.01,weatherlink.com 1.10,2013-06-02 06:11:00,
2013-06-02 02:26:00,69.7,66.0,29.95,ENE,76,6.0,10.0,89,0.00,,,0.01,weatherlink.com 1.10,2013-06-02 06:26:00,
2013-06-02 02:41:00,69.7,66.0,29.96,SE,139,2.0,11.0,88,0.00,,,0.01,weatherlink.com 1.10,2013-06-02 06:41:00,
2013-06-02 02:56:00,69.6,66.0,29.98,ESE,118,0.0,5.0,89,0.00,,,0.01,weatherlink.com 1.10,2013-06-02 06:56:00,
2013-06-02 03:11:00,69.5,67.0,29.98,ESE,108,0.0,5.0,90,0.00,,,0.01,weatherlink.com 1.10,2013-06-02 07:11:00,
2013-06-02 03:26:00,69.3,66.0,29.98,ESE,118,1.0,4.0,90,0.00,,,0.01,weatherlink.com 1.10,2013-06-02 07:26:00,
2013-06-02 03:41:00,69.3,66.0,29.98,East,100,0.0,4.0,89,0.00,,,0.01,weatherlink.com 1.10,2013-06-02 07:41:00,
2013-06-02 03:56:00,69.3,66.0,29.97,ESE,109,0.0,7.0,89,0.00,,,0.01,weatherlink.com 1.10,2013-06-02 07:56:00,
2013-06-02 04:11:00,69.2,66.0,29.97,SE,130,2.0,5.0,89,0.00,,,0.01,weatherlink.com 1.10,2013-06-02 08:11:00,
2013-06-02 04:26:00,69.1,66.0,29.98,SE,131,0.0,5.0,89,0.00,,,0.01,weatherlink.com 1.10,2013-06-02 08:26:00,
2013-06-02 04:41:00,69.0,66.0,29.97,ESE,106,2.0,4.0,90,0.00,,,0.01,weatherlink.com 1.10,2013-06-02 08:41:00,
2013-06-02 04:56:00,68.6,66.0,29.97,ESE,104,0.0,3.0,90,0.00,,,0.01,weatherlink.com 1.10,2013-06-02 08:56:00,
2013-06-02 05:11:00,68.1,65.0,29.96,East,99,0.0,4.0,91,0.00,,,0.01,weatherlink.com 1.10,2013-06-02 09:11:00,
2013-06-02 05:26:00,67.6,65.0,29.96,East,101,0.0,3.0,92,0.00,,,0.01,weatherlink.com 1.10,2013-06-02 09:26:00,
2013-06-02 05:41:00,67.2,65.0,29.97,East,101,1.0,2.0,93,0.00,,,0.01,weatherlink.com 1.10,2013-06-02 09:41:00,
2013-06-02 05:56:00,66.7,65.0,29.97,East,101,0.0,1.0,94,0.00,,,0.01,weatherlink.com 1.10,2013-06-02 09:56:00,
2013-06-02 06:11:00,66.3,65.0,29.97,East,101,0.0,1.0,95,0.00,,,0.01,weatherlink.com 1.10,2013-06-02 10:11:00,
2013-06-02 06:26:00,65.9,65.0,29.97,East,101,0.0,1.0,96,0.00,,,0.01,weatherlink.com 1.10,2013-06-02 10:26:00,
2013-06-02 06:41:00,65.6,65.0,29.97,East,101,0.0,1.0,96,0.00,,,0.01,weatherlink.com 1.10,2013-06-02 10:41:00,
2013-06-02 06:56:00,65.4,65.0,29.98,East,101,0.0,0.0,97,0.00,,,0.01,weatherlink.com 1.10,2013-06-02 10:56:00,
2013-06-02 07:11:00,65.6,65.0,29.98,East,101,0.0,1.0,98,0.00,,,0.01,weatherlink.com 1.10,2013-06-02 11:11:00,
2013-06-02 07:26:00,66.2,65.0,29.98,East,101,3.0,3.0,97,0.00,,,0.01,weatherlink.com 1.10,2013-06-02 11:26:00,
2013-06-02 07:41:00,67.2,66.0,29.98,ESE,104,0.0,6.0,96,0.00,,,0.01,weatherlink.com 1.10,2013-06-02 11:41:00,
2013-06-02 07:56:00,67.8,66.0,29.97,East,92,1.0,7.0,94,0.00,,,0.01,weatherlink.com 1.10,2013-06-02 11:56:00,
2013-06-02 08:11:00,67.9,66.0,29.97,ESE,116,1.0,5.0,94,0.00,,,0.01,weatherlink.com 1.10,2013-06-02 12:11:00,
2013-06-02 08:26:00,68.6,67.0,29.97,ESE,113,0.0,5.0,93,0.00,,,0.01,weatherlink.com 1.10,2013-06-02 12:26:00,
2013-06-02 08:41:00,69.1,67.0,29.97,ESE,106,1.0,5.0,93,0.00,,,0.01,weatherlink.com 1.10,2013-06-02 12:41:00,
2013-06-02 08:56:00,69.8,67.0,29.97,ESE,107,3.0,6.0,91,0.00,,,0.01,weatherlink.com 1.10,2013-06-02 12:56:00,
2013-06-02 09:11:00,70.6,68.0,29.96,ESE,108,0.0,8.0,90,0.00,,,0.01,weatherlink.com 1.10,2013-06-02 13:11:00,
2013-06-02 09:26:00,71.9,69.0,29.96,ESE,113,1.0,4.0,89,0.00,,,0.01,weatherlink.com 1.10,2013-06-02 13:26:00,
2013-06-02 09:41:00,72.4,68.0,29.95,East,96,3.0,5.0,87,0.00,,,0.01,weatherlink.com 1.10,2013-06-02 13:41:00,
2013-06-02 09:56:00,73.4,69.0,29.95,East,91,6.0,10.0,86,0.00,,,0.01,weatherlink.com 1.10,2013-06-02 13:56:00,
2013-06-02 10:11:00,72.9,69.0,29.95,ESE,110,1.0,10.0,86,0.00,,,0.01,weatherlink.com 1.10,2013-06-02 14:11:00,
2013-06-02 10:26:00,73.8,69.0,29.95,East,99,2.0,6.0,85,0.00,,,0.01,weatherlink.com 1.10,2013-06-02 14:26:00,
2013-06-02 10:41:00,73.6,69.0,29.95,East,94,5.0,7.0,85,0.00,,,0.01,weatherlink.com 1.10,2013-06-02 14:41:00,
2013-06-02 10:56:00,74.1,69.0,29.96,SE,137,4.0,9.0,84,0.00,,,0.01,weatherlink.com 1.10,2013-06-02 14:56:00,
2013-06-02 11:11:00,74.4,69.0,29.96,SE,131,1.0,8.0,84,0.00,,,0.01,weatherlink.com 1.10,2013-06-02 15:11:00,
2013-06-02 11:27:00,75.0,70.0,29.96,ESE,119,1.0,8.0,83,0.00,,,0.01,weatherlink.com 1.10,2013-06-02 15:27:00,
2013-06-02 11:42:00,75.1,70.0,29.96,ESE,104,5.0,5.0,84,0.00,,,0.01,weatherlink.com 1.10,2013-06-02 15:42:00,
2013-06-02 11:57:00,75.8,70.0,29.96,SSE,161,0.0,7.0,82,0.00,,,0.01,weatherlink.com 1.10,2013-06-02 15:57:00,
2013-06-02 12:12:00,75.6,70.0,29.96,ESE,121,3.0,7.0,83,0.00,,,0.01,weatherlink.com 1.10,2013-06-02 16:12:00,
2013-06-02 12:27:00,74.4,69.0,29.96,East,98,2.0,9.0,84,0.00,,,0.01,weatherlink.com 1.10,2013-06-02 16:27:00,
2013-06-02 12:42:00,74.6,70.0,29.96,East,90,2.0,8.0,85,0.00,,,0.01,weatherlink.com 1.10,2013-06-02 16:42:00,
2013-06-02 12:57:00,75.5,70.0,29.95,East,93,3.0,7.0,84,0.00,,,0.01,weatherlink.com 1.10,2013-06-02 16:57:00,
2013-06-02 13:12:00,75.0,70.0,29.95,SSE,164,0.0,5.0,84,0.00,,,0.01,weatherlink.com 1.10,2013-06-02 17:12:00,
2013-06-02 13:27:00,74.6,70.0,29.95,ESE,123,0.0,6.0,86,0.00,,,0.01,weatherlink.com 1.10,2013-06-02 17:27:00,
2013-06-02 13:42:00,74.6,70.0,29.95,East,98,3.0,8.0,85,0.00,,,0.01,weatherlink.com 1.10,2013-06-02 17:42:00,
2013-06-02 13:57:00,75.2,71.0,29.95,East,96,3.0,7.0,85,0.00,,,0.01,weatherlink.com 1.10,2013-06-02 17:57:00,
2013-06-02 14:12:00,76.0,71.0,29.94,ESE,113,0.0,9.0,84,0.00,,,0.01,weatherlink.com 1.10,2013-06-02 18:12:00,
2013-06-02 14:27:00,75.4,70.0,29.93,East,91,3.0,6.0,84,0.00,,,0.01,weatherlink.com 1.10,2013-06-02 18:27:00,
2013-06-02 14:42:00,73.2,70.0,29.93,ESE,102,1.0,5.0,90,0.00,,,0.01,weatherlink.com 1.10,2013-06-02 18:42:00,
2013-06-02 14:57:00,72.3,71.0,29.92,ESE,110,1.0,4.0,94,0.01,,,0.02,weatherlink.com 1.10,2013-06-02 18:57:00,
2013-06-02 15:12:00,72.6,71.0,29.92,ESE,114,0.0,5.0,95,0.01,,,0.02,weatherlink.com 1.10,2013-06-02 19:12:00,
2013-06-02 15:27:00,74.2,72.0,29.91,ESE,106,5.0,5.0,91,0.01,,,0.02,weatherlink.com 1.10,2013-06-02 19:27:00,
2013-06-02 15:42:00,73.8,71.0,29.90,ESE,113,3.0,6.0,92,0.01,,,0.02,weatherlink.com 1.10,2013-06-02 19:42:00,
2013-06-02 15:57:00,73.4,71.0,29.89,SSE,147,0.0,7.0,93,0.00,,,0.02,weatherlink.com 1.10,2013-06-02 19:57:00,
2013-06-02 16:12:00,73.5,71.0,29.89,ESE,108,1.0,7.0,91,0.00,,,0.02,weatherlink.com 1.10,2013-06-02 20:12:00,
2013-06-02 16:27:00,73.6,71.0,29.88,ESE,102,0.0,4.0,92,0.00,,,0.02,weatherlink.com 1.10,2013-06-02 20:27:00,
2013-06-02 16:42:00,74.0,71.0,29.88,ESE,102,1.0,2.0,91,0.00,,,0.02,weatherlink.com 1.10,2013-06-02 20:42:00,
2013-06-02 16:57:00,73.9,72.0,29.88,East,96,0.0,4.0,92,0.00,,,0.02,weatherlink.com 1.10,2013-06-02 20:57:00,
2013-06-02 17:12:00,74.5,72.0,29.88,ESE,104,0.0,4.0,91,0.00,,,0.02,weatherlink.com 1.10,2013-06-02 21:12:00,
2013-06-02 17:27:00,74.7,71.0,29.87,ESE,110,0.0,3.0,89,0.00,,,0.02,weatherlink.com 1.10,2013-06-02 21:27:00,
2013-06-02 17:42:00,74.1,71.0,29.88,East,98,0.0,5.0,91,0.00,,,0.02,weatherlink.com 1.10,2013-06-02 21:42:00,
2013-06-02 17:57:00,73.8,72.0,29.90,ESE,116,0.0,1.0,93,0.00,,,0.02,weatherlink.com 1.10,2013-06-02 21:57:00,
2013-06-02 18:12:00,73.0,72.0,29.90,SSW,195,1.0,4.0,96,0.02,,,0.04,weatherlink.com 1.10,2013-06-02 22:12:00,
2013-06-02 18:27:00,72.2,71.0,29.89,SSW,197,0.0,1.0,97,0.04,,,0.06,weatherlink.com 1.10,2013-06-02 22:27:00,
2013-06-02 18:42:00,71.6,71.0,29.89,SSW,197,0.0,1.0,98,0.06,,,0.08,weatherlink.com 1.10,2013-06-02 22:42:00,
2013-06-02 18:57:00,71.4,71.0,29.90,SSW,197,0.0,2.0,99,0.07,,,0.09,weatherlink.com 1.10,2013-06-02 22:57:00,
2013-06-02 19:12:00,71.2,71.0,29.90,SSW,197,0.0,1.0,99,0.05,,,0.09,weatherlink.com 1.10,2013-06-02 23:12:00,
2013-06-02 19:27:00,71.0,71.0,29.90,SSW,197,0.0,0.0,100,0.03,,,0.09,weatherlink.com 1.10,2013-06-02 23:27:00,
2013-06-02 19:42:00,70.9,71.0,29.90,SSW,197,0.0,1.0,100,0.01,,,0.09,weatherlink.com 1.10,2013-06-02 23:42:00,
2013-06-02 19:57:00,70.8,71.0,29.89,SSW,197,0.0,1.0,100,0.01,,,0.10,weatherlink.com 1.10,2013-06-02 23:57:00,
2013-06-02 20:12:00,70.6,71.0,29.89,SSW,197,0.0,0.0,100,0.03,,,0.12,weatherlink.com 1.10,2013-06-03 00:12:00,
2013-06-02 20:27:00,70.4,70.0,29.90,SSW,197,0.0,1.0,100,0.06,,,0.15,weatherlink.com 1.10,2013-06-03 00:27:00,
2013-06-02 20:42:00,70.4,70.0,29.90,South,190,0.0,3.0,100,0.08,,,0.17,weatherlink.com 1.10,2013-06-03 00:42:00,
2013-06-02 20:57:00,69.7,70.0,29.89,East,100,2.0,7.0,100,0.09,,,0.19,weatherlink.com 1.10,2013-06-03 00:57:00,
2013-06-02 21:12:00,68.5,69.0,29.89,East,98,0.0,2.0,100,0.10,,,0.22,weatherlink.com 1.10,2013-06-03 01:12:00,
2013-06-02 21:27:00,68.4,68.0,29.88,East,98,0.0,2.0,100,0.10,,,0.25,weatherlink.com 1.10,2013-06-03 01:27:00,
2013-06-02 21:42:00,67.9,68.0,29.88,East,98,0.0,2.0,100,0.08,,,0.25,weatherlink.com 1.10,2013-06-03 01:42:00,
2013-06-02 21:57:00,67.2,67.0,29.88,East,98,0.0,0.0,100,0.06,,,0.25,weatherlink.com 1.10,2013-06-03 01:57:00,
2013-06-02 22:12:00,66.9,67.0,29.88,East,98,0.0,0.0,100,0.03,,,0.25,weatherlink.com 1.10,2013-06-03 02:12:00,
2013-06-02 22:27:00,66.5,67.0,29.88,East,98,0.0,0.0,100,0.00,,,0.25,weatherlink.com 1.10,2013-06-03 02:27:00,
2013-06-02 22:42:00,66.3,66.0,29.89,East,98,0.0,0.0,100,0.00,,,0.25,weatherlink.com 1.10,2013-06-03 02:42:00,
2013-06-02 22:57:00,66.3,66.0,29.90,East,98,0.0,1.0,100,0.00,,,0.25,weatherlink.com 1.10,2013-06-03 02:57:00,
2013-06-02 23:12:00,65.9,66.0,29.89,East,98,0.0,1.0,100,0.00,,,0.25,weatherlink.com 1.10,2013-06-03 03:12:00,
2013-06-02 23:27:00,65.8,66.0,29.90,East,98,0.0,1.0,100,0.00,,,0.25,weatherlink.com 1.10,2013-06-03 03:27:00,
2013-06-02 23:42:00,65.4,65.0,29.90,East,98,1.0,1.0,100,0.00,,,0.25,weatherlink.com 1.10,2013-06-03 03:42:00,
2013-06-02 23:57:00,65.1,65.0,29.89,East,98,0.0,0.0,100,0.00,,,0.25,weatherlink.com 1.10,2013-06-03 03:57:00,